This demonstration page uses our WeatherBlox Daily Observations layout. Learn more.

Left ArrowRight Arrow

44.8408, -93.29828

Hourly Observations for February 13, 2019

Temp ( °F °C ) Dew Point ( °F °C ) Humidity (%) Winds ( mph kmh ) Pressure ( in mb ) Visibility ( mi km ) Precip ( " mm )
12:50 am 00:50 Mostly Cloudy 10 -12 9 -13 92 92 WNW 13 20 30.03 1017 10 16 0.00 0.00
12:53 am 00:53 Mostly Cloudy 11 -11.7 8 -13.3 88 88 WNW 12 19 29.98 1015 10 16 0.00 0.00
1:38 am 01:38 Partly Cloudy 9 -12.8 7 -13.9 92 92 WNW 9 15 30.04 1017 10 16 0.00 0.00
1:53 am 01:53 Mostly Clear 8 -13.3 6 -14.4 92 92 WNW 8 13 29.99 1016 10 16 0.00 0.00
2:53 am 02:53 Clear 8 -13.3 6 -14.4 92 92 W 9 15 30.01 1016 10 16 0.00 0.00
3:53 am 03:53 Mostly Clear 6 -14.4 4 -15.6 91 91 W 10 17 30.03 1017 10 16 0.00 0.00
4:37 am 04:37 Mostly Cloudy 5 -15 3 -16.1 91 91 WNW 9 15 30.09 1019 10 16 0.00 0.00
4:53 am 04:53 Cloudy 5 -15 3 -16.1 91 91 WNW 9 15 30.04 1017 9 14 0.00 0.00
5:07 am 05:07 Cloudy 5 -15 3 -16.1 91 91 WNW 12 19 30.09 1019 10 16 0.00 0.00
5:32 am 05:32 Cloudy 5 -15 4 -15.6 95 95 NW 12 19 30.09 1019 10 16 0.00 0.00
5:53 am 05:53 Cloudy 6 -14.4 5 -15 95 95 NW 10 17 30.05 1018 8 13 0.00 0.00
6:53 am 06:53 Cloudy with Light Snow 6 -14.4 5 -15 95 95 NW 8 13 30.05 1018 7 11 0.00 0.03
7:53 am 07:53 Cloudy with Light Snow 5 -15 4 -15.6 95 95 W 8 13 30.06 1018 4 6 0.00 0.03
8:14 am 08:14 Cloudy with Light Snow 5 -15 4 -15.6 95 95 W 7 11 30.10 1019 2 3 0.00 0.03
8:53 am 08:53 Mostly Cloudy with Light Snow 5 -15 3 -16.1 91 91 W 6 9 30.05 1018 7 11 0.00 0.03
9:15 am 09:15 Partly Cloudy with Scattered Snow Showers 6 -14.4 3 -16.1 87 87 W 6 9 30.08 1019 8 13 0.00 0.03
9:53 am 09:53 Partly Cloudy 7 -13.9 3 -16.1 84 84 W 6 9 30.04 1017 9 14 0.00 0.03
10:53 am 10:53 Partly Cloudy 8 -13.3 4 -15.6 83 83 S 6 9 30.03 1017 10 16 0.00 0.00
11:53 am 11:53 Partly Cloudy 9 -12.8 4 -15.6 80 80 S 5 7 30.01 1016 10 16 0.00 0.00
12:53 pm 12:53 Mostly Cloudy 12 -11.1 5 -15 73 73 VRB 3 6 29.95 1014 10 16 0.00 0.00
1:53 pm 13:53 Mostly Cloudy 16 -8.9 7 -13.9 67 67 Calm 29.92 1013 10 16 0.00 0.00
2:53 pm 14:53 Mostly Cloudy 17 -8.3 8 -13.3 68 68 ESE 9 15 29.87 1012 10 16 0.00 0.00
3:53 pm 15:53 Cloudy 15 -9.4 8 -13.3 74 74 SE 8 13 29.85 1011 10 16 0.00 0.00
4:53 pm 16:53 Cloudy 15 -9.4 8 -13.3 74 74 SE 7 11 29.84 1011 10 16 0.00 0.00
5:53 pm 17:53 Cloudy 15 -9.4 8 -13.3 74 74 SE 7 11 29.80 1009 10 16 0.00 0.00
6:53 pm 18:53 Cloudy 16 -8.9 9 -12.8 74 74 ESE 8 13 29.79 1009 10 16 0.00 0.00
7:53 pm 19:53 Cloudy 17 -8.3 10 -12.2 74 74 ESE 9 15 29.76 1008 10 16 0.00 0.00
8:53 pm 20:53 Cloudy 18 -7.8 11 -11.7 74 74 SE 6 9 29.75 1008 10 16 0.00 0.00
9:53 pm 21:53 Cloudy 18 -7.8 11 -11.7 74 74 SE 10 17 29.70 1006 10 16 0.00 0.00
10:53 pm 22:53 Cloudy 18 -7.8 11 -11.7 74 74 SSE 7 11 29.70 1006 10 16 0.00 0.00
11:53 pm 23:53 Cloudy 19 -7.2 12 -11.1 74 74 SSE 8 13 29.67 1005 10 16 0.00 0.00

Powered by AerisWeather